Location: Glen Waverley
(37.8830°S, 145.1670°E)
Time: 04:32:56
(UTC+11:00)

ISS - Visible Passes

Search period start: 22 March 2019 00:00
Search period end: 01 April 2019 00:00
Orbit: 406 x 411 km, 51.6° (Epoch: 21 March)

Date Brightness Start Highest point End Pass type
(mag) Time Alt. Az. Time Alt. Az. Time Alt. Az.
26 Mar -2.9 06:55:25 10° NNW 06:58:39 51° NE 07:01:57 10° ESE visible
27 Mar -1.8 06:05:13 12° N 06:07:39 25° NE 06:10:30 10° ESE visible
28 Mar -0.9 05:16:50 13° NE 05:16:50 13° NE 05:18:25 10° E visible
28 Mar -3.6 06:49:37 10° WNW 06:52:54 56° SW 06:56:15 10° SE visible
29 Mar -3.7 06:01:03 50° NNW 06:01:46 74° NE 06:05:07 10° SE visible
30 Mar -1.2 05:12:22 21° E 05:12:22 21° E 05:13:47 10° ESE visible
30 Mar -2.4 06:45:07 14° W 06:47:17 25° SSW 06:50:10 10° SSE visible
31 Mar -3.0 05:56:19 40° SSW 05:56:19 40° SSW 05:59:13 10° SE visible
